Weather History for Olbia, Italy

Change the Weather History Date:

Sunday, December 2, 2012

  Actual Average Record
Temperature  
Mean Temperature 50 °F -  
Max Temperature 59 °F 56 °F 69 °F (2004)
Min Temperature 42 °F 42 °F 33 °F (2005)
Degree Days  
Heating Degree Days 14    
Moisture  
Dew Point 42 °F    
Average Humidity 72    
Maximum Humidity 93    
Minimum Humidity 51    
Precipitation  
Precipitation 0.00 in 0.12 in - ()
Sea Level Pressure  
Sea Level Pressure 29.81 in    
Wind  
Wind Speed 10 mph ()    
Max Wind Speed 29 mph    
Max Gust Speed 50 mph    
Visibility 6.2 miles    
Events      
Averages and records for this station are not official NWS values.
T = Trace of Precipitation, MM = Missing Value Source: Averaged Metar Reports

Daily Weather History Graph

Daily Weather History Graph

Search for Another Location

Airport:

Trip Planner

Search our weather history database for the weather conditions in past years. The results will help you decide how hot, cold, wet, or windy it might be!

Date:

Astronomy

Dec. 02, 2012 Rise Set
Actual Time 7:28 AM CET 4:54 PM CET
Civil Twilight 6:57 AM CET 5:24 PM CET
Nautical Twilight 6:23 AM CET 5:59 PM CET
Astronomical Twilight 5:50 AM CET 6:32 PM CET
Moon 8:26 PM CET (12/2) 10:07 AM CET (12/2)
Length of Visible Light 10h 27m
Length of Day
9h 26m
Waning Gibbous, 87% of the Moon is Illuminated
Dec 2
Waning Gibbous
Dec 6
Last Quarter
Dec 13
New
Dec 20
First Quarter
Dec 28
Full

Hourly Weather History & Observations

Time (CET) Temp. Windchill Dew Point Humidity Pressure Visibility Wind Dir Wind Speed Gust Speed Precip Events Conditions
12:20 AM 44.6 °F 41.4 °F 41.0 °F 87% 29.80 in - SSW 5.8 mph - N/A   Clear
12:50 AM 42.8 °F 40.1 °F 39.2 °F 87% 29.80 in - SW 4.6 mph - N/A   Clear
1:20 AM 42.8 °F - 39.2 °F 87% 29.80 in - Variable 1.2 mph - N/A   Clear
1:50 AM 42.8 °F 41.1 °F 41.0 °F 93% 29.80 in - South 3.5 mph - N/A   Clear
2:20 AM 42.8 °F 39.3 °F 41.0 °F 93% 29.80 in - SSW 5.8 mph - N/A   Clear
2:50 AM 42.8 °F 41.1 °F 39.2 °F 87% 29.80 in - WSW 3.5 mph - N/A   Clear
3:20 AM 42.8 °F 39.3 °F 41.0 °F 93% 29.80 in - SSW 5.8 mph - N/A   Clear
3:50 AM 42.8 °F - 41.0 °F 93% 29.80 in - Variable 2.3 mph - N/A   Clear
4:20 AM 42.8 °F 39.3 °F 41.0 °F 93% 29.80 in - SSW 5.8 mph - N/A   Clear
4:50 AM 44.6 °F 40.7 °F 41.0 °F 87% 29.80 in - SSW 6.9 mph - N/A   Clear
5:20 AM 42.8 °F - 39.2 °F 87% 29.80 in - Calm Calm - N/A   Clear
5:50 AM 46.4 °F 42.9 °F 41.0 °F 81% 29.80 in - SSW 6.9 mph - N/A   Clear
6:20 AM 46.4 °F 43.5 °F 42.8 °F 87% 29.80 in 6.2 mi SW 5.8 mph - N/A   Scattered Clouds
6:50 AM 46.4 °F 41.9 °F 41.0 °F 81% 29.80 in 6.2 mi SW 9.2 mph - N/A   Scattered Clouds
7:20 AM 46.4 °F 40.4 °F 41.0 °F 81% 29.80 in 6.2 mi SW 13.8 mph - N/A   Scattered Clouds
7:50 AM 44.6 °F 39.2 °F 41.0 °F 87% 29.80 in 6.2 mi SW 10.4 mph 23.0 mph N/A   Scattered Clouds
8:20 AM 46.4 °F 41.5 °F 41.0 °F 81% 29.83 in 6.2 mi SW 10.4 mph - N/A   Scattered Clouds
8:50 AM 50.0 °F - 42.8 °F 76% 29.83 in 6.2 mi SSW 8.1 mph - N/A   Scattered Clouds
9:20 AM 51.8 °F - 42.8 °F 71% 29.83 in 6.2 mi SSW 5.8 mph - N/A   Scattered Clouds
9:50 AM 53.6 °F - 44.6 °F 72% 29.83 in 6.2 mi West 10.4 mph - N/A   Scattered Clouds
10:20 AM 55.4 °F - 46.4 °F 72% 29.83 in 6.2 mi WSW 8.1 mph - N/A   Scattered Clouds
10:50 AM 57.2 °F - 46.4 °F 67% 29.83 in 6.2 mi SW 9.2 mph - N/A   Scattered Clouds
11:20 AM 57.2 °F - 46.4 °F 67% 29.83 in 6.2 mi SW 9.2 mph - N/A   Scattered Clouds
11:50 AM 57.2 °F - 48.2 °F 72% 29.83 in 6.2 mi WSW 13.8 mph - N/A   Scattered Clouds
12:20 PM 55.4 °F - 48.2 °F 77% 29.83 in 6.2 mi SSW 11.5 mph - N/A   Scattered Clouds
12:50 PM 57.2 °F - 48.2 °F 72% 29.83 in 6.2 mi SW 15.0 mph - N/A   Scattered Clouds
1:20 PM 57.2 °F - 48.2 °F 72% 29.80 in 6.2 mi SW 16.1 mph - N/A   Scattered Clouds
1:50 PM 57.2 °F - 48.2 °F 72% 29.80 in 6.2 mi SW 15.0 mph - N/A   Partly Cloudy
2:20 PM 59.0 °F - 44.6 °F 59% 29.80 in 6.2 mi SW 17.3 mph - N/A   Partly Cloudy
2:50 PM 57.2 °F - 42.8 °F 59% 29.80 in 6.2 mi West 13.8 mph - N/A   Partly Cloudy
3:20 PM 55.4 °F - 41.0 °F 58% 29.80 in 6.2 mi West 17.3 mph - N/A   Partly Cloudy
3:50 PM 55.4 °F - 39.2 °F 54% 29.80 in 6.2 mi WSW 19.6 mph - N/A   Partly Cloudy
4:20 PM 51.8 °F - 41.0 °F 67% 29.80 in 6.2 mi SW 13.8 mph - N/A   Partly Cloudy
4:50 PM 53.6 °F - 39.2 °F 58% 29.80 in 6.2 mi WSW 18.4 mph - N/A   Partly Cloudy
5:20 PM 51.8 °F - 39.2 °F 62% 29.80 in 6.2 mi WSW 16.1 mph 27.6 mph N/A   Partly Cloudy
5:50 PM 53.6 °F - 41.0 °F 62% 29.80 in 6.2 mi WSW 23.0 mph - N/A   Partly Cloudy
6:20 PM 53.6 °F - 42.8 °F 67% 29.80 in 6.2 mi WSW 23.0 mph - N/A   Partly Cloudy
6:50 PM 51.8 °F - 42.8 °F 71% 29.80 in - SW 21.9 mph - N/A   Clear
7:20 PM 53.6 °F - 42.8 °F 67% 29.83 in - WSW 24.2 mph - N/A   Clear
7:50 PM 53.6 °F - 41.0 °F 62% 29.83 in - WSW 24.2 mph 40.3 mph N/A   Clear
8:20 PM 53.6 °F - 39.2 °F 58% 29.83 in 6.2 mi WSW 23.0 mph 35.7 mph N/A   Light Drizzle
8:50 PM 53.6 °F - 39.2 °F 58% 29.83 in 6.2 mi WSW 26.5 mph 39.1 mph N/A   Scattered Clouds
9:20 PM 53.6 °F - 39.2 °F 58% 29.83 in 6.2 mi WSW 20.7 mph 32.2 mph N/A   Scattered Clouds
9:50 PM 53.6 °F - 37.4 °F 54% 29.83 in 6.2 mi WSW 24.2 mph 36.8 mph N/A   Light Drizzle
10:20 PM 53.6 °F - 37.4 °F 54% 29.83 in 6.2 mi WSW 24.2 mph 36.8 mph N/A   Light Drizzle
10:50 PM 53.6 °F - 35.6 °F 51% 29.83 in 6.2 mi WSW 24.2 mph 39.1 mph N/A   Light Drizzle
11:20 PM 53.6 °F - 35.6 °F 51% 29.86 in 6.2 mi West 28.8 mph 42.6 mph N/A   Scattered Clouds
11:50 PM 53.6 °F - 35.6 °F 51% 29.86 in 6.2 mi West 25.3 mph 49.5 mph N/A   Scattered Clouds